Flag for Saint Kitts and Nevis Weather past 2 weeks in Basseterre, Saint Kitts and Nevis

Now
86 °F

Scattered clouds.


Feels Like: 95 °F
Forecast: 81 / 83 °F
Wind: 12 mph from East

Location: Golden Rock

Current Time: Jul 14, 2014 at 11:32:25 AM

Latest Report: Jul 14, 2014 at 11:00 AM


Visibility: N/A

Pressure: 30.07 "Hg

Humidity: 70%

Dew point: 75 °F

Location of BasseterreLocation

Historic Weather in Basseterre — Graph

°F

Basseterre temperature yesterday

Maximum temperature yesterday: 88 °F (at 12:00 PM)
Minimum temperature yesterday: 79 °F (at 6:00 AM)
Average temperature yesterday: 84 °F

Past Weeks' High & Low Weather Summary

 TemperatureHumidityPressure
High88 °F (Jun 29, 11:00 AM)100% (Jun 30, 8:00 AM)30.15 "Hg (Jun 30, 8:00 AM)
Low73 °F (Jun 30, 10:00 AM)59% (Jul 9, 2:00 PM)29.98 "Hg (Jun 30, 4:00 PM)
Average83 °F76%30.07 "Hg
* Reported Jun 29 10:00 AM — Jul 14 10:00 AM, Basseterre, Weather by CustomWeather, © 2014

Note: Actual official high and low records may vary slightly from our data, if they occured in-between our weather recording intervals... More about our weather records

Advertising

Basseterre weather history for previous 24 hours

 ConditionsComfort  
Time TempWeatherWind HumidityBarometerVisibility
10:00 AM
Jul 14
86 °FPassing clouds.9 mph70%30.07 "HgN/A
9:00 AM84 °FPassing clouds.13 mph74%30.07 "HgN/A
8:00 AM77 °FScattered showers. Scattered clouds.5 mph89%30.07 "HgN/A
7:00 AM81 °FPassing clouds.8 mph84%30.07 "HgN/A
6:00 AM81 °FPassing clouds.6 mph79%30.04 "HgN/A
9:00 PM
Jul 13
81 °FPassing clouds.10 mph79%30.07 "HgN/A
8:00 PM81 °FPassing clouds.9 mph84%30.04 "HgN/A
7:00 PM81 °FPassing clouds.9 mph84%30.04 "HgN/A
6:00 PM82 °FPassing clouds.10 mph79%30.01 "HgN/A
5:00 PM84 °FPassing clouds.7 mph74%30.01 "HgN/A
4:00 PM86 °FPassing clouds.10 mph70%30.04 "HgN/A
3:00 PM86 °FPassing clouds.12 mph70%30.04 "HgN/A
2:00 PM88 °FPassing clouds.14 mph70%30.04 "HgN/A
1:00 PM82 °FPassing clouds.7 mph79%30.04 "HgN/A
12:00 PM88 °FPassing clouds.13 mph66%30.07 "HgN/A
11:00 AM86 °FPassing clouds.12 mph70%30.07 "HgN/A
Weather by CustomWeather, © 2014

See weather overviewHow to use our weather pages